Total_Precipitation_Accumulation
0.00 0.03 0.16 0.23 0.30 0.38 0.22 0.08 0.04 0.09 0.12 0.11 0.11 0.15 0.19 0.23 0.24 0.24 0.24 0.23 0.23 0.27 0.39 0.59 0.68 0.91 0.64 0.40 0.28 0.18 0.16 0.15 0.15 0.11 0.11 0.11 0.06 0.01 0.00 0.00 0.00 0.00 0.00
0.00 0.09 0.24 0.13 0.16 0.12 0.11 0.04 0.04 0.09 0.17 0.21 0.19 0.22 0.24 0.23 0.21 0.20 0.24 0.24 0.25 0.26 0.29 0.44 0.51 0.71 0.72 0.54 0.34 0.21 0.14 0.14 0.11 0.11 0.12 0.08 0.04 0.00 0.00 0.00 0.00 0.00 0.00
0.00 0.05 0.11 0.15 0.09 0.06 0.04 0.03 0.02 0.01 0.07 0.20 0.26 0.28 0.22 0.14 0.17 0.21 0.23 0.23 0.21 0.20 0.23 0.33 0.41 0.43 0.56 0.47 0.36 0.28 0.19 0.17 0.11 0.10 0.08 0.04 0.01 0.00 0.00 0.00 0.00 0.00 0.00
0.00 0.00 0.01 0.04 0.10 0.07 0.05 0.02 0.02 0.01 0.01 0.02 0.04 0.10 0.20 0.20 0.15 0.12 0.16 0.15 0.11 0.12 0.14 0.20 0.24 0.24 0.24 0.31 0.27 0.25 0.22 0.18 0.10 0.07 0.06 0.03 0.00 0.00 0.00 0.00 0.00 0.00 0.00
0.00 0.00 0.00 0.00 0.02 0.02 0.07 0.02 0.02 0.02 0.02 0.02 0.01 0.03 0.07 0.18 0.18 0.06 0.04 0.08 0.05 0.04 0.08 0.09 0.09 0.13 0.15 0.20 0.18 0.19 0.18 0.15 0.12 0.07 0.05 0.02 0.01 0.00 0.00 0.00 0.00 0.00 0.00
0.00 0.00 0.00 0.00 0.01 0.02 0.01 0.01 0.04 0.04 0.04 0.04 0.03 0.02 0.02 0.03 0.10 0.09 0.03 0.01 0.02 0.03 0.05 0.05 0.06 0.08 0.06 0.10 0.14 0.14 0.11 0.11 0.10 0.07 0.03 0.01 0.00 0.00 0.00 0.00 0.00 0.00 0.00
0.00 0.00 0.00 0.00 0.01 0.03 0.03 0.01 0.02 0.05 0.04 0.02 0.01 0.01 0.01 0.03 0.09 0.05 0.03 0.00 0.00 0.00 0.00 0.01 0.02 0.05 0.05 0.03 0.06 0.07 0.05 0.06 0.10 0.08 0.03 0.01 0.00 0.00 0.00 0.00 0.00 0.00 0.00
0.01 0.01 0.01 0.00 0.00 0.01 0.03 0.02 0.03 0.02 0.02 0.01 0.01 0.01 0.01 0.04 0.16 0.18 0.16 0.07 0.04 0.04 0.00 0.00 0.00 0.02 0.03 0.04 0.04 0.04 0.03 0.03 0.05 0.04 0.01 0.00 0.00 0.00 0.00 0.00 0.00 0.00 0.00
0.05 0.01 0.00 0.00 0.00 0.00 0.00 0.00 0.00 0.02 0.01 0.01 0.01 0.02 0.03 0.06 0.13 0.14 0.20 0.13 0.07 0.05 0.00 0.00 0.00 0.00 0.01 0.02 0.02 0.03 0.04 0.03 0.02 0.01 0.00 0.00 0.00 0.00 0.00 0.00 0.00 0.00 0.00
0.01 0.01 0.00 0.00 0.00 0.00 0.00 0.00 0.00 0.02 0.05 0.06 0.06 0.06 0.13 0.20 0.38 0.37 0.33 0.26 0.16 0.06 0.01 0.00 0.00 0.00 0.00 0.01 0.01 0.01 0.01 0.01 0.01 0.01 0.00 0.00 0.00 0.00 0.00 0.00 0.00 0.00 0.00
0.02 0.00 0.00 0.00 0.00 0.00 0.00 0.00 0.01 0.03 0.08 0.16 0.27 0.28 0.25 0.37 0.55 0.66 0.49 0.35 0.23 0.11 0.06 0.02 0.00 0.00 0.00 0.00 0.00 0.00 0.00 0.00 0.01 0.01 0.01 0.00 0.00 0.00 0.00 0.00 0.00 0.00 0.00
0.02 0.01 0.03 0.03 0.02 0.01 0.01 0.02 0.04 0.18 0.27 0.24 0.25 0.38 0.42 0.45 0.51 0.41 0.31 0.27 0.22 0.16 0.10 0.06 0.02 0.00 0.00 0.00 0.00 0.00 0.00 0.00 0.00 0.01 0.00 0.00 0.00 0.00 0.00 0.00 0.00 0.00 0.00
0.06 0.05 0.02 0.02 0.01 0.01 0.02 0.03 0.04 0.07 0.07 0.09 0.13 0.16 0.23 0.32 0.34 0.35 0.27 0.17 0.18 0.20 0.13 0.10 0.08 0.01 0.00 0.00 0.00 0.00 0.00 0.00 0.00 0.00 0.00 0.00 0.00 0.00 0.00 0.00 0.00 0.00 0.00
0.04 0.03 0.00 0.00 0.02 0.03 0.02 0.02 0.02 0.02 0.02 0.01 0.03 0.03 0.05 0.08 0.14 0.19 0.23 0.21 0.15 0.15 0.17 0.12 0.06 0.00 0.00 0.00 0.00 0.00 0.00 0.00 0.00 0.00 0.00 0.00 0.00 0.00 0.00 0.00 0.00 0.00 0.00
0.04 0.02 0.00 0.00 0.01 0.02 0.02 0.03 0.04 0.04 0.05 0.03 0.02 0.03 0.04 0.03 0.04 0.06 0.08 0.12 0.16 0.13 0.09 0.06 0.03 0.01 0.00 0.00 0.00 0.00 0.00 0.00 0.00 0.00 0.00 0.00 0.00 0.00 0.00 0.00 0.00 0.00 0.00
0.03 0.01 0.00 0.00 0.00 0.01 0.01 0.01 0.02 0.01 0.03 0.05 0.05 0.07 0.05 0.06 0.07 0.05 0.06 0.08 0.10 0.10 0.06 0.02 0.01 0.00 0.00 0.00 0.00 0.00 0.00 0.00 0.00 0.00 0.00 0.00 0.00 0.00 0.00 0.00 0.00 0.00 0.00
0.11 0.03 0.01 0.00 0.00 0.00 0.01 0.01 0.00 0.01 0.01 0.03 0.05 0.07 0.09 0.08 0.06 0.04 0.04 0.04 0.06 0.05 0.03 0.01 0.01 0.00 0.00 0.00 0.00 0.00 0.00 0.00 0.00 0.00 0.00 0.00 0.00 0.00 0.00 0.00 0.00 0.00 0.00
0.37 0.16 0.05 0.04 0.01 0.00 0.00 0.01 0.01 0.01 0.01 0.01 0.02 0.05 0.07 0.10 0.11 0.09 0.10 0.15 0.19 0.11 0.02 0.01 0.00 0.00 0.00 0.00 0.00 0.00 0.00 0.00 0.00 0.00 0.00 0.00 0.00 0.00 0.00 0.00 0.00 0.00 0.00
0.20 0.26 0.12 0.08 0.06 0.02 0.00 0.01 0.02 0.03 0.03 0.02 0.02 0.02 0.04 0.09 0.15 0.20 0.17 0.11 0.07 0.06 0.06 0.06 0.02 0.00 0.00 0.00 0.00 0.00 0.00 0.00 0.00 0.00 0.00 0.00 0.00 0.00 0.00 0.00 0.00 0.00 0.00
0.03 0.08 0.12 0.10 0.07 0.01 0.00 0.00 0.01 0.03 0.06 0.05 0.04 0.03 0.06 0.08 0.09 0.11 0.12 0.11 0.12 0.10 0.09 0.09 0.06 0.04 0.01 0.00 0.00 0.00 0.00 0.00 0.00 0.00 0.00 0.00 0.00 0.00 0.00 0.00 0.00 0.00 0.00
0.06 0.07 0.08 0.05 0.03 0.01 0.00 0.00 0.00 0.01 0.02 0.03 0.03 0.07 0.09 0.08 0.05 0.06 0.06 0.08 0.08 0.10 0.09 0.08 0.07 0.06 0.04 0.02 0.01 0.00 0.00 0.00 0.00 0.00 0.00 0.00 0.00 0.00 0.00 0.00 0.00 0.00 0.00
0.09 0.09 0.08 0.06 0.04 0.03 0.02 0.00 0.01 0.01 0.02 0.03 0.04 0.10 0.15 0.16 0.10 0.10 0.13 0.14 0.12 0.09 0.08 0.06 0.04 0.04 0.03 0.02 0.02 0.02 0.02 0.01 0.00 0.00 0.00 0.00 0.00 0.00 0.00 0.01 0.01 0.01 0.01
0.00 0.01 0.01 0.01 0.01 0.01 0.01 0.01 0.02 0.03 0.04 0.04 0.04 0.08 0.13 0.14 0.12 0.13 0.17 0.17 0.16 0.11 0.08 0.05 0.03 0.04 0.03 0.03 0.02 0.02 0.02 0.01 0.01 0.03 0.04 0.04 0.04 0.04 0.04 0.04 0.03 0.03 0.04
0.02 0.02 0.02 0.03 0.03 0.02 0.02 0.02 0.02 0.03 0.04 0.04 0.04 0.05 0.10 0.14 0.15 0.14 0.15 0.16 0.16 0.13 0.13 0.12 0.09 0.09 0.11 0.10 0.09 0.09 0.07 0.06 0.07 0.07 0.06 0.09 0.07 0.04 0.06 0.07 0.05 0.03 0.02
0.04 0.05 0.05 0.06 0.06 0.06 0.05 0.04 0.04 0.03 0.04 0.04 0.05 0.06 0.08 0.11 0.15 0.19 0.21 0.23 0.24 0.25 0.26 0.24 0.22 0.21 0.20 0.20 0.18 0.16 0.15 0.14 0.13 0.12 0.11 0.11 0.09 0.07 0.08 0.08 0.05 0.06 0.07
0.06 0.06 0.07 0.07 0.07 0.07 0.06 0.05 0.04 0.04 0.04 0.04 0.04 0.04 0.05 0.06 0.08 0.11 0.13 0.15 0.17 0.18 0.17 0.17 0.17 0.16 0.14 0.12 0.11 0.10 0.11 0.13 0.12 0.11 0.10 0.11 0.11 0.09 0.10 0.11 0.09 0.10 0.06